{"data":{"norad_id":23839,"epoch":"2026-05-25T03:55:30.619776Z","epoch_age_seconds":50950,"freshness":"FRESH","line1":"1 23839U 96020A   26145.16354884 -.00000249  00000+0  00000+0 0  9993","line2":"2 23839  10.5546  46.8450 0003533  16.5517 167.1986  0.99984353110026","mean_motion":0.99984353,"eccentricity":0.0003533,"inclination_deg":10.5546,"raan_deg":46.845,"arg_perigee_deg":16.5517,"mean_anomaly_deg":167.1986,"bstar":0,"rev_number":11002,"period_min":1440.2253520608,"perigee_km":35852.440222323,"apogee_km":35882.290894431,"semimajor_km":42245.502558377,"source":"CELESTRAK","updated_at":"2026-05-25T13:38:13.806641Z"}}